Wind_Speed
2 2 2 3 3 3 2 2 3 3 3 3 2 2 2 1 1 1 1 1 1 1 1 2 2 3 3 4 4 4 5 5 5 5 6 6 6 7 7 7 7 7 7 7 7 7 7 7 7
1 2 2 3 3 3 3 3 3 3 3 3 3 2 2 1 1 1 1 1 2 2 3 3 3 3 4 4 5 5 6 6 6 7 7 7 7 7 7 7 7 7 7 7 7 7 7 7 7
2 2 2 2 2 3 3 3 3 3 3 3 2 2 2 2 1 1 2 2 2 3 4 4 4 4 4 5 5 5 6 6 7 7 7 7 8 8 8 7 7 8 7 7 7 8 8 8 8
2 3 2 2 2 2 3 3 3 3 3 3 2 2 2 2 2 2 3 3 3 4 5 5 5 5 5 5 5 6 6 7 7 8 8 8 8 8 8 8 8 8 8 8 8 8 8 8 9
3 3 2 2 1 2 3 3 3 3 3 3 3 3 3 3 3 3 4 4 5 5 5 6 6 6 6 6 6 6 6 7 7 7 8 8 9 9 9 9 8 8 8 8 8 8 8 8 8
2 2 2 2 2 2 2 2 2 2 2 2 2 3 3 3 4 4 4 5 6 6 6 6 5 6 6 7 6 7 7 7 8 8 8 8 8 8 8 8 8 8 8 9 8 8 8 9 9
2 2 2 2 2 2 2 2 2 2 2 1 1 2 2 2 3 3 3 4 5 5 6 6 5 5 6 6 6 7 7 7 8 8 8 8 9 8 8 8 8 8 9 9 8 8 9 9 9
2 2 2 2 2 2 2 2 2 2 2 2 2 2 2 2 3 3 4 4 5 5 5 5 5 5 5 5 6 6 6 7 7 7 8 8 9 9 9 9 9 9 9 9 8 8 8 9 9
3 3 3 2 2 2 2 3 3 3 3 3 3 3 3 3 3 3 4 4 5 4 4 4 4 4 5 5 5 6 6 7 7 8 8 8 9 9 9 9 10 9 9 9 8 8 8 8 8
4 4 4 4 3 3 3 3 4 3 3 3 4 3 3 3 4 4 4 4 4 4 4 4 4 4 5 5 5 6 7 7 8 9 9 9 9 9 10 9 9 9 9 9 8 8 7 7 7
4 4 5 5 4 4 4 4 4 4 4 4 4 4 4 4 4 4 5 5 4 4 4 4 4 5 5 5 5 6 7 8 8 9 9 9 10 10 10 10 9 8 9 8 8 8 8 8 8
4 5 5 5 5 5 5 5 5 5 5 5 5 5 5 5 5 4 4 5 5 4 4 4 4 4 5 5 5 6 7 7 8 8 8 9 9 10 9 9 9 8 8 8 8 8 8 8 8
5 5 6 6 6 6 6 6 6 6 7 6 6 6 7 6 6 5 5 5 4 4 4 4 4 5 5 5 5 6 7 8 9 9 8 8 9 9 9 9 8 8 8 8 8 8 8 8 7
6 6 6 7 7 7 7 7 7 7 7 7 6 6 6 6 6 6 5 4 4 5 5 5 5 5 5 6 6 7 7 8 9 8 8 8 9 9 9 9 9 9 9 9 9 8 9 8 8
7 7 7 7 7 7 7 7 7 8 8 8 7 7 7 7 6 6 5 4 5 6 6 6 6 6 6 7 7 7 8 9 9 9 9 9 9 9 9 9 10 9 9 9 9 8 8 8 8
8 8 8 7 7 7 8 7 7 8 8 8 8 7 7 7 6 6 6 6 6 7 7 7 7 7 7 8 8 8 9 10 10 10 10 9 9 9 9 9 10 10 10 9 9 8 9 9 9
8 8 8 8 8 7 8 7 8 8 8 8 8 8 8 8 7 7 7 7 8 8 8 8 8 9 9 9 9 9 10 11 10 10 10 10 10 10 10 10 10 10 11 11 10 9 9 9 10
8 9 8 8 8 8 8 8 8 8 8 8 8 9 9 9 9 9 9 9 9 9 10 10 10 10 10 10 10 11 11 11 11 11 11 11 11 11 11 11 11 11 11 11 11 10 10 10 11
10 10 9 9 8 8 8 8 8 9 9 9 9 9 10 10 10 10 10 10 10 10 10 10 11 11 11 11 11 11 11 11 11 11 12 12 11 11 12 11 12 12 12 12 12 12 12 11 11
10 10 9 9 10 9 9 9 10 10 10 9 10 10 10 10 11 11 11 12 11 11 11 11 11 12 12 12 12 12 13 12 12 12 12 12 12 12 12 12 12 12 12 12 12 12 12 13 13
10 10 10 10 10 11 11 11 11 12 11 10 10 10 10 11 11 12 12 12 12 12 12 12 12 12 12 13 13 13 13 13 13 13 13 13 13 13 13 13 13 13 13 13 13 13 13 14 14
11 11 11 11 12 12 13 12 12 12 11 11 11 11 11 12 13 13 13 13 13 13 14 14 14 14 13 13 14 14 14 14 14 14 14 14 14 14 15 15 14 14 14 14 15 15 15 15 15
12 12 12 13 13 13 14 14 12 12 12 12 11 12 12 13 14 14 14 14 14 14 15 15 15 15 15 15 15 16 16 16 16 16 16 16 16 16 16 16 16 16 15 15 16 16 16 16 16
13 13 13 14 14 14 13 14 12 13 13 13 13 13 13 14 14 14 14 15 15 15 16 16 16 16 16 17 17 17 17 17 17 18 18 18 17 17 18 17 18 18 17 17 17 17 17 17 17
13 13 14 15 15 14 14 15 14 14 14 15 15 15 15 15 15 15 15 16 16 17 17 17 17 17 17 18 19 19 19 19 19 19 20 20 19 19 19 20 20 20 19 19 19 19 19 19 19
13 14 14 15 15 15 15 16 15 15 15 16 16 16 16 16 16 16 16 17 17 18 18 19 19 19 19 20 20 21 21 21 21 21 21 22 21 21 21 21 21 21 21 21 21 21 21 21 21
14 14 15 16 17 17 16 16 16 17 17 17 17 17 17 17 17 18 18 19 19 19 20 20 21 21 21 22 22 22 22 22 22 22 23 23 23 23 23 23 23 23 23 23 23 23 23 23 23
15 14 15 16 18 18 17 17 17 17 18 18 19 18 19 19 19 19 20 20 21 21 22 23 23 23 23 23 24 24 23 23 23 23 24 24 24 24 25 25 25 25 25 25 25 25 25 26 25
16 15 16 17 18 18 17 17 18 18 19 19 20 20 20 20 20 20 21 21 22 22 23 23 23 24 24 24 24 24 24 24 25 25 25 26 26 25 26 26 26 26 26 27 27 27 27 27 27
17 17 17 18 18 19 19 17 18 19 19 19 20 21 21 21 21 21 21 21 22 23 23 23 24 25 25 25 25 25 25 25 25 26 27 27 27 27 27 27 28 28 28 28 28 29 29 29 29
Wind_Direction
203 205 210 213 219 222 223 207 201 202 200 192 183 178 175 182 224 242 249 260 286 315 324 329 329 326 328 328 324 325 327 325 327 328 326 325 325 325 322 321 321 322 315 308 304 306 308 308 304
214 214 221 224 225 221 208 195 196 199 198 200 197 192 186 179 213 254 265 264 267 281 292 300 302 308 314 317 313 310 314 317 318 323 319 317 315 317 316 318 322 322 316 308 305 305 306 307 303
220 217 224 222 215 207 201 195 198 210 206 214 213 203 202 201 217 248 276 287 291 290 292 293 301 306 306 307 300 300 306 313 317 315 312 313 312 311 311 311 315 318 315 307 304 302 298 299 297
217 213 208 199 199 205 206 207 213 208 207 207 213 219 219 228 243 258 280 292 297 297 297 299 304 304 305 304 302 301 306 310 311 312 307 307 307 305 306 304 305 307 305 299 300 300 298 297 296
213 201 191 186 197 211 215 208 209 213 213 221 235 241 241 247 257 266 278 285 289 294 299 300 304 304 306 306 305 302 303 307 313 315 309 308 307 302 300 300 303 303 301 299 301 299 300 297 298
214 210 200 197 199 199 196 208 208 229 229 233 233 241 252 259 266 271 274 278 284 289 295 295 301 306 308 306 306 306 305 306 311 313 309 312 311 303 300 299 303 306 304 301 300 300 300 299 299
201 201 196 191 192 198 220 234 227 237 247 241 233 246 259 268 271 274 277 284 287 290 294 294 296 303 306 306 306 307 306 308 312 313 311 311 314 310 305 301 303 304 303 301 301 301 303 302 299
214 200 199 199 208 217 237 245 244 250 264 260 252 253 265 270 272 275 282 284 287 288 291 295 298 305 309 310 311 311 308 308 312 314 313 310 310 308 306 303 303 302 303 302 301 299 298 298 298
236 229 231 230 231 234 243 248 255 260 276 274 268 265 261 263 266 274 277 277 282 284 287 294 300 306 311 312 314 314 313 311 312 312 308 306 307 307 306 302 303 301 301 302 301 299 298 297 296
249 248 250 252 251 250 252 257 259 265 267 267 268 268 267 267 269 272 272 270 273 275 280 289 297 302 306 309 311 315 317 316 313 310 306 308 310 308 305 303 301 301 301 300 297 296 295 298 299
254 253 262 261 260 259 258 260 262 265 267 265 268 269 271 272 273 272 268 266 269 271 274 283 292 302 306 304 305 311 317 315 317 315 313 313 314 311 307 305 303 304 304 301 298 297 297 299 300
254 255 260 261 263 264 268 271 273 272 270 267 268 268 271 276 276 273 271 273 272 274 278 286 293 301 305 307 310 314 320 322 323 320 317 314 314 313 311 310 307 304 305 305 303 296 300 300 299
255 256 262 262 263 264 267 271 277 278 277 272 270 266 264 266 265 268 273 273 271 273 278 283 290 299 308 311 313 315 321 323 326 321 318 316 314 312 311 310 307 306 302 302 300 301 302 303 302
261 261 266 267 270 271 270 270 271 272 275 274 269 262 259 256 257 261 265 265 269 273 274 276 285 294 303 308 312 312 319 320 322 322 319 314 311 309 309 306 305 306 303 301 301 302 301 299 298
264 267 268 266 269 273 272 267 267 270 272 272 269 263 257 254 253 260 264 268 276 277 277 279 285 289 294 298 303 307 313 316 316 315 316 312 308 308 309 307 307 308 305 302 303 304 301 301 298
268 269 270 271 273 275 274 269 270 270 271 269 266 263 257 256 254 260 265 271 277 279 280 282 286 288 290 294 298 302 306 308 309 312 312 311 310 309 307 306 306 307 306 304 301 301 297 297 299
267 273 274 272 271 274 274 271 270 269 268 265 260 261 262 260 259 262 265 270 273 278 280 283 286 287 287 293 295 297 300 302 304 305 306 308 306 305 302 300 301 302 303 301 300 299 296 293 293
272 273 272 272 271 267 268 269 269 266 265 264 261 260 261 262 261 263 265 268 272 276 279 282 282 286 288 289 293 296 298 301 301 300 300 301 300 299 297 296 294 296 298 298 296 295 296 292 290
276 273 271 271 268 264 265 267 268 268 265 261 261 262 263 263 264 265 266 268 269 273 276 279 280 285 288 287 289 293 295 297 296 296 298 298 297 298 298 297 295 295 295 295 293 292 295 294 292
280 275 270 268 268 268 267 269 270 269 268 267 267 267 267 266 265 265 266 267 269 271 273 278 281 284 288 289 289 291 291 291 291 291 295 295 294 296 298 299 299 299 296 295 293 291 292 294 293
277 274 270 270 270 271 270 269 271 273 275 274 272 268 265 266 269 269 270 271 272 274 275 278 282 284 288 290 289 288 288 289 290 292 293 294 294 294 296 298 296 296 297 295 293 292 291 293 293
273 273 273 273 272 272 273 272 272 276 276 277 275 272 269 270 272 271 271 271 271 273 276 277 280 282 284 287 288 287 288 290 290 290 291 291 292 293 294 297 295 292 294 294 292 290 290 290 290
272 272 273 273 272 275 275 274 271 274 276 277 277 277 277 276 275 272 272 273 273 273 275 278 279 280 282 283 286 286 286 287 288 288 289 290 290 292 293 294 293 291 290 290 290 289 288 287 287
275 274 274 272 272 273 274 275 273 274 277 277 278 280 282 283 279 278 276 275 273 272 273 277 281 281 282 283 283 284 285 285 286 286 287 289 289 289 290 292 292 291 289 288 288 287 287 287 287
274 275 275 275 274 275 273 273 274 274 277 278 279 280 282 284 283 280 279 278 276 274 275 278 280 281 282 282 283 282 284 284 284 285 285 286 286 287 287 288 288 288 287 286 285 285 284 284 285
273 273 275 277 279 279 276 275 277 276 277 279 279 279 280 282 283 282 281 281 280 279 277 278 279 279 280 281 282 283 284 285 285 285 285 285 285 286 287 286 285 286 285 284 282 282 284 283 283
274 275 277 278 279 279 278 279 278 277 277 278 278 279 279 280 282 282 282 282 281 281 279 278 278 278 280 281 282 283 284 285 284 283 284 284 284 285 285 285 284 283 284 283 281 282 283 282 282
275 276 277 279 280 280 279 279 279 277 276 276 275 277 278 279 280 280 280 281 282 281 280 279 278 278 279 281 282 283 284 285 285 285 284 283 283 284 285 285 284 283 283 282 280 281 282 282 281
274 276 278 279 281 283 283 281 281 281 279 278 278 279 279 280 281 280 279 281 282 283 283 281 279 279 280 281 282 282 283 283 283 284 284 284 282 283 284 284 284 284 283 283 281 280 280 281 280
276 277 278 280 282 283 283 283 284 283 283 282 280 281 282 280 279 279 280 282 282 283 283 281 280 281 281 282 282 282 282 282 282 283 284 284 283 283 283 283 283 283 284 283 283 282 281 281 280
Height
5861 5862 5863 5864 5865 5865 5865 5866 5866 5867 5867 5868 5868 5868 5868 5869 5870 5873 5871 5870 5870 5871 5871 5871 5870 5870 5870 5870 5870 5869 5869 5868 5867 5867 5866 5866 5866 5865 5865 5865 5864 5864 5863 5863 5863 5862 5862 5861 5861
5861 5862 5864 5865 5864 5865 5866 5866 5866 5867 5867 5868 5868 5868 5868 5868 5869 5869 5869 5870 5870 5870 5870 5870 5870 5870 5869 5869 5869 5868 5868 5867 5867 5866 5866 5865 5865 5864 5864 5864 5864 5863 5863 5862 5862 5861 5861 5860 5860
5861 5862 5864 5864 5864 5865 5866 5866 5867 5867 5867 5867 5868 5868 5869 5868 5869 5869 5869 5869 5869 5870 5869 5869 5869 5869 5869 5868 5868 5868 5867 5866 5866 5865 5864 5864 5864 5863 5863 5863 5863 5862 5862 5861 5861 5860 5860 5859 5859
5862 5863 5864 5864 5864 5865 5866 5866 5866 5867 5867 5867 5868 5868 5868 5868 5868 5869 5869 5869 5869 5869 5869 5868 5868 5868 5868 5867 5867 5867 5866 5865 5865 5864 5862 5863 5862 5862 5862 5862 5862 5861 5860 5860 5859 5859 5858 5858 5857
5862 5863 5863 5863 5864 5865 5865 5866 5866 5866 5867 5867 5868 5867 5868 5868 5868 5868 5868 5868 5869 5868 5868 5868 5867 5867 5867 5866 5866 5866 5865 5864 5864 5863 5862 5861 5861 5861 5861 5860 5860 5859 5859 5858 5858 5857 5857 5856 5855
5862 5862 5863 5864 5864 5865 5865 5866 5866 5866 5866 5867 5867 5867 5867 5868 5867 5867 5868 5868 5868 5867 5867 5867 5866 5866 5866 5865 5865 5864 5863 5863 5863 5862 5861 5860 5860 5859 5859 5859 5858 5858 5857 5856 5856 5856 5855 5855 5854
5863 5863 5863 5864 5864 5865 5865 5865 5866 5866 5866 5866 5867 5867 5867 5867 5867 5867 5867 5867 5867 5866 5866 5866 5866 5865 5865 5864 5864 5863 5862 5862 5861 5860 5860 5859 5859 5858 5858 5857 5857 5856 5856 5855 5854 5854 5853 5853 5852
5862 5863 5863 5863 5864 5865 5865 5865 5865 5865 5866 5866 5866 5866 5866 5866 5866 5866 5866 5866 5866 5865 5865 5865 5865 5864 5864 5863 5863 5862 5862 5861 5860 5859 5858 5858 5857 5857 5856 5856 5855 5855 5854 5853 5853 5852 5852 5851 5850
5862 5863 5863 5863 5864 5864 5864 5864 5865 5865 5865 5865 5865 5865 5865 5865 5865 5865 5865 5865 5865 5864 5864 5864 5864 5864 5863 5863 5862 5861 5861 5860 5859 5858 5857 5856 5856 5855 5855 5854 5853 5853 5852 5852 5851 5850 5850 5849 5848
5861 5862 5862 5863 5863 5863 5864 5864 5864 5864 5864 5864 5864 5864 5864 5864 5864 5864 5864 5864 5864 5864 5863 5863 5863 5863 5862 5862 5861 5860 5860 5859 5858 5857 5856 5855 5855 5854 5853 5853 5852 5851 5851 5850 5849 5849 5848 5847 5847
5860 5861 5862 5862 5862 5862 5863 5863 5863 5863 5863 5863 5863 5863 5863 5863 5863 5863 5863 5863 5863 5863 5862 5862 5862 5862 5861 5861 5860 5860 5859 5858 5857 5856 5855 5854 5853 5853 5852 5851 5850 5850 5849 5848 5848 5847 5847 5846 5845
5860 5860 5860 5861 5861 5861 5862 5862 5862 5862 5862 5862 5862 5862 5862 5862 5862 5862 5862 5862 5862 5862 5861 5861 5861 5861 5860 5860 5859 5858 5858 5857 5856 5855 5854 5853 5852 5851 5850 5849 5849 5848 5848 5847 5846 5845 5845 5844 5843
5859 5859 5860 5860 5860 5860 5861 5861 5861 5860 5860 5860 5860 5861 5861 5861 5861 5861 5860 5860 5860 5860 5860 5860 5860 5860 5859 5859 5858 5857 5857 5856 5854 5853 5852 5851 5851 5850 5849 5848 5847 5846 5846 5845 5845 5844 5843 5842 5842
5858 5858 5859 5859 5859 5859 5859 5859 5859 5859 5859 5859 5859 5859 5859 5859 5859 5859 5859 5859 5859 5859 5859 5859 5859 5858 5858 5857 5857 5856 5855 5854 5853 5852 5851 5850 5849 5848 5847 5846 5845 5845 5844 5843 5843 5842 5841 5841 5840
5857 5858 5858 5857 5857 5857 5858 5858 5858 5858 5857 5857 5857 5858 5858 5858 5858 5858 5858 5858 5858 5858 5858 5857 5857 5857 5856 5856 5855 5854 5854 5852 5851 5850 5849 5848 5847 5846 5845 5845 5844 5843 5842 5841 5841 5840 5839 5839 5838
5856 5856 5857 5857 5856 5856 5858 5857 5856 5856 5856 5856 5856 5856 5856 5856 5856 5856 5856 5856 5856 5856 5856 5856 5855 5855 5854 5854 5853 5852 5851 5850 5849 5848 5847 5846 5845 5844 5844 5843 5842 5841 5840 5839 5839 5838 5838 5837 5836
5854 5855 5855 5855 5855 5854 5855 5854 5854 5854 5854 5854 5854 5854 5854 5855 5855 5855 5854 5854 5854 5854 5854 5853 5853 5852 5852 5851 5851 5850 5849 5848 5847 5846 5845 5844 5843 5842 5841 5841 5840 5839 5838 5837 5836 5836 5835 5835 5834
5853 5853 5853 5853 5853 5853 5853 5852 5852 5852 5852 5852 5852 5852 5852 5852 5853 5852 5852 5852 5852 5852 5852 5851 5851 5850 5849 5849 5848 5848 5847 5846 5845 5844 5843 5842 5841 5840 5839 5838 5837 5836 5836 5835 5834 5833 5833 5832 5831
5850 5851 5851 5851 5851 5851 5851 5851 5851 5850 5850 5850 5850 5850 5850 5850 5850 5850 5850 5849 5849 5849 5849 5848 5848 5847 5847 5846 5845 5845 5844 5843 5842 5841 5840 5840 5839 5838 5837 5836 5835 5834 5833 5832 5831 5831 5830 5829 5829
5848 5849 5849 5849 5848 5849 5849 5849 5848 5848 5848 5848 5848 5847 5847 5847 5847 5847 5847 5846 5846 5846 5846 5845 5845 5844 5844 5843 5842 5842 5841 5841 5840 5839 5838 5837 5836 5835 5834 5833 5832 5831 5830 5830 5829 5828 5827 5826 5826
5846 5846 5846 5846 5846 5846 5847 5847 5846 5846 5846 5846 5845 5845 5845 5844 5844 5844 5844 5843 5843 5843 5842 5842 5841 5841 5840 5840 5839 5839 5838 5837 5837 5836 5835 5834 5833 5832 5831 5830 5829 5828 5827 5827 5826 5825 5824 5823 5822
5844 5844 5844 5844 5844 5843 5844 5844 5844 5843 5843 5843 5842 5842 5841 5841 5841 5840 5840 5840 5839 5839 5839 5838 5838 5837 5837 5836 5835 5835 5834 5834 5833 5832 5831 5831 5830 5829 5828 5827 5826 5825 5824 5823 5822 5821 5820 5820 5819
5841 5841 5841 5841 5841 5841 5841 5841 5842 5841 5840 5840 5840 5839 5838 5838 5837 5836 5836 5836 5835 5835 5835 5834 5834 5833 5833 5832 5832 5831 5830 5830 5829 5828 5827 5826 5826 5825 5824 5823 5822 5821 5820 5819 5818 5817 5816 5815 5815
5838 5838 5838 5837 5838 5838 5838 5838 5839 5838 5838 5837 5837 5836 5835 5834 5834 5833 5832 5831 5831 5831 5830 5830 5829 5829 5828 5828 5827 5827 5826 5825 5824 5824 5823 5822 5821 5821 5820 5819 5818 5817 5816 5815 5814 5813 5812 5811 5810
5835 5835 5835 5834 5834 5835 5835 5834 5836 5835 5834 5834 5833 5833 5832 5831 5830 5829 5828 5827 5827 5826 5826 5825 5825 5824 5824 5823 5823 5822 5821 5820 5819 5819 5818 5817 5817 5816 5815 5814 5813 5812 5811 5810 5809 5808 5807 5806 5805
5831 5832 5832 5831 5831 5831 5830 5830 5832 5831 5830 5829 5829 5829 5828 5827 5826 5825 5824 5823 5822 5821 5821 5820 5820 5819 5818 5818 5817 5816 5815 5815 5814 5813 5812 5812 5811 5810 5809 5808 5807 5806 5805 5804 5803 5802 5801 5800 5799
5828 5828 5828 5828 5827 5827 5827 5827 5827 5826 5826 5825 5825 5824 5823 5822 5821 5820 5819 5818 5817 5816 5815 5815 5814 5814 5813 5812 5811 5810 5809 5809 5808 5807 5806 5805 5805 5804 5803 5802 5801 5800 5799 5798 5797 5796 5795 5794 5793
5825 5824 5824 5823 5822 5822 5822 5822 5822 5821 5821 5820 5820 5819 5818 5817 5816 5815 5814 5813 5811 5810 5810 5809 5808 5807 5807 5806 5805 5804 5803 5802 5802 5801 5800 5799 5798 5797 5796 5795 5794 5793 5792 5791 5790 5789 5788 5787 5786
5821 5821 5820 5819 5818 5818 5818 5820 5817 5817 5816 5815 5814 5813 5813 5812 5811 5810 5809 5807 5806 5805 5804 5803 5802 5801 5800 5799 5798 5797 5796 5796 5795 5794 5793 5792 5791 5790 5789 5788 5786 5785 5784 5783 5782 5781 5781 5780 5778
5816 5816 5815 5815 5814 5813 5813 5816 5812 5811 5810 5810 5809 5808 5807 5806 5805 5804 5803 5802 5800 5799 5797 5796 5795 5794 5793 5792 5791 5790 5789 5788 5788 5787 5785 5784 5783 5782 5781 5780 5779 5778 5776 5775 5774 5773 5772 5771 5770